This is the latest recevied weather packets stored in our database for station/object KC8UZG. If no packets are shown the sender has not sent any weather packets the latest 10 day(s).
| Time | Temp. | Humidity | Pressure | Rain* | Wind** | Luminosity | Snow |
|---|---|---|---|---|---|---|---|
| 1778129718 | 5.56° C | 99% | 1013.9 hPa | 0 mm | - | 0 W/m² | - |
| 1778129127 | 5.56° C | 98% | 1013.6 hPa | 0 mm | - | 0 W/m² | - |
| 1778128530 | 5.56° C | 97% | 1013.7 hPa | 0 mm | - | 0 W/m² | - |
| 1778127936 | 5.56° C | 97% | 1013.7 hPa | 0 mm | - | 0 W/m² | - |
| 1778127315 | 6.11° C | 96% | 1013.6 hPa | 0 mm | - | 0 W/m² | - |
| 1778126721 | 6.11° C | 95% | 1013.6 hPa | 0 mm | - | 0 W/m² | - |
| 1778126127 | 6.11° C | 95% | 1013.8 hPa | 0 mm | - | 0 W/m² | - |
| 1778125533 | 6.67° C | 95% | 1013.6 hPa | 0 mm | - | 0 W/m² | - |
| 1778124939 | 6.67° C | 95% | 1013.6 hPa | 0 mm | - | 0 W/m² | - |
| 1778124318 | 7.22° C | 95% | 1013.7 hPa | 0 mm | - | 0 W/m² | - |
| 1778123723 | 7.78° C | 94% | 1013.8 hPa | 0 mm | - | 0 W/m² | - |
| 1778123130 | 7.78° C | 93% | 1013.9 hPa | 0 mm | - | 0 W/m² | - |
| 1778122536 | 7.78° C | 91% | 1013.9 hPa | 0 mm | - | 0 W/m² | - |
| 1778121942 | 7.78° C | 90% | 1013.9 hPa | 0 mm | - | 0 W/m² | - |
| 1778121321 | 7.22° C | 90% | 1013.9 hPa | 0 mm | - | 0 W/m² | - |
| 1778120727 | 7.78° C | 91% | 1013.9 hPa | 0 mm | - | 0 W/m² | - |
| 1778120133 | 7.78° C | 90% | 1013.9 hPa | 0 mm | - | 0 W/m² | - |
| 1778119539 | 7.78° C | 89% | 1013.9 hPa | 0 mm | - | 0 W/m² | - |
| 1778118918 | 7.78° C | 87% | 1013.6 hPa | 0 mm | - | 0 W/m² | - |
| 1778118323 | 8.33° C | 83% | 1013.6 hPa | 0 mm | - | 0 W/m² | - |
| 1778117730 | 8.33° C | 81% | 1013.5 hPa | 0 mm | - | 0 W/m² | - |
| 1778117136 | 8.89° C | 79% | 1013.4 hPa | 0 mm | - | 0 W/m² | - |
| 1778116542 | 9.44° C | 76% | 1013.4 hPa | 0 mm | - | 0 W/m² | - |
| 1778115921 | 10° C | 74% | 1013.4 hPa | 0 mm | - | 0 W/m² | - |
| 1778115327 | 10.56° C | 69% | 1013.4 hPa | 0 mm | - | 0 W/m² | - |
* Rain latest hour (hover to see other rain measurements)
** Current wind speed in m/s (hover to see current wind gust speed)